Location: Kouchibouguac National Park
(46.8081°N, 64.9088°W)
Time: 17:19:44
(UTC-03:00)

Daily predictions for brighter satellites

Satellite Brightness Start Highest point End
(mag) Time Altitude Azimuth Time Altitude Azimuth Time Altitude Azimuth
SeaSat 1 2.6 21:28:41 10° SE 21:33:35 68° ENE 21:38:31 10° NNW
ARGOS 4.3 21:30:09 10° ESE 21:34:45 29° ENE 21:39:22 10° N
H-2A R/B 2.2 21:30:42 10° S 21:34:58 79° WSW 21:39:21 10° NNW
CZ-4B R/B 4.5 21:32:21 10° NE 21:36:42 28° E 21:41:07 10° SSE
SL-16 R/B 2.3 21:32:18 10° SSW 21:37:58 89° ESE 21:43:40 10° NNE
Cosmos 1666 2.8 21:35:51 10° N 21:39:46 88° E 21:43:40 10° S
Cosmos 1626 Rocket 3.8 21:39:35 10° S 21:43:53 51° E 21:48:10 10° NNE
COSMOS 2455 3.6 21:39:26 10° SSE 21:44:33 30° ESE 21:49:41 10° NE
PSLV R/B 3.2 21:44:23 10° SSE 21:47:27 68° ENE 21:50:34 10° N
Cosmos 1939 Rocket 3.1 21:43:24 10° S 21:47:33 80° WSW 21:51:44 10° NNW
APEX 4.1 21:46:44 10° NW 21:50:34 55° WSW 21:55:30 10° SSE
ATLAS 3B R/B 4.0 21:45:12 10° SSE 21:50:43 22° ESE 21:56:09 10° ENE
Cosmos 2228 3.4 21:47:31 10° NNW 21:51:56 68° W 21:56:18 10° S
MetOp-B 4.3 21:47:23 10° SSE 21:52:40 64° ENE 21:57:59 10° N
Lacrosse 5 rocket 2.2 21:53:38 10° WSW 21:57:28 53° NNW 22:01:32 10° NE
Nimbus 7 Rocket 4.4 21:55:35 10° NNE 22:01:36 85° ESE 22:07:31 10° SSW
ERS-1 Rocket 4.3 22:00:24 10° SSW 22:05:03 38° W 22:09:45 10° NNW
USA 234 3.3 21:58:29 10° SE 22:05:04 82° SW 22:11:41 10° NW
Cosmos 1603 3.7 22:01:22 10° SSW 22:06:54 63° ESE 22:12:27 10° NNE
Envisat 3.3 22:03:47 10° S 22:08:49 66° WSW 22:13:54 10° NNW
Cosmos 1515 4.1 22:08:53 10° SSE 22:12:31 43° E 22:16:13 10° NNE
Abrixas rocket 4.4 22:14:01 10° W 22:16:17 17° SW 22:18:26 11° S
UNK 4.2 22:14:19 10° NNE 22:19:42 78° ESE 22:25:21 10° SSW
BREEZE M DEB (TANK) 2.3 22:19:04 10° W 22:21:11 28° SSW 22:21:56 21° SSE
Cosmos 1346 Rocket 3.9 22:20:28 17° SE 22:22:40 27° E 22:26:01 10° NNE
USA 81 4.2 22:17:35 10° N 22:22:51 62° E 22:27:21 14° SSE
Lacrosse 4 Rocket 2.9 22:22:56 16° SE 22:23:51 17° ESE 22:26:33 10° ENE
Tsikada Rocket 4.2 22:19:54 10° SSW 22:26:19 80° W 22:32:44 10° N
YAOGAN 6 2.8 22:27:50 14° S 22:31:00 73° WSW 22:34:46 10° NNW
CZ-4 R/B 4.0 22:26:28 10° NNE 22:31:24 59° ESE 22:36:15 11° S
Cosmos 1943 3.6 22:26:16 10° S 22:31:34 43° ESE 22:36:56 10° NE
Cosmos 1238 4.2 22:28:39 10° S 22:31:48 79° W 22:34:49 10° N
Cosmos 1758 Rocket 4.3 22:32:58 19° SSE 22:35:35 36° E 22:39:34 10° NNE
PSLV R/B 4.5 22:32:39 10° SW 22:35:38 25° SSE 22:36:28 23° SE
ISS -2.5 22:32:57 10° SSW 22:35:50 29° SE 22:38:43 10° E
Cosmos 1943 Rocket 3.2 22:32:47 10° NNW 22:37:53 36° NE 22:42:00 15° ESE
CARTOSAT-1 4.2 22:37:22 20° SE 22:40:02 43° ENE 22:44:08 10° N
SPOT 5 4.0 22:37:15 10° SSW 22:41:15 33° W 22:45:12 10° NNW
Cosmos 1992 Rocket 4.1 22:38:54 10° NNW 22:44:07 72° WSW 22:48:02 18° S
SL-8 R/B 4.0 22:41:31 10° W 22:46:22 72° N 22:51:13 10° E
Landsat 7 3.9 22:44:24 20° SSE 22:47:38 71° ENE 22:52:23 10° N
H-2A R/B 2.2 22:48:11 21° SE 22:51:23 60° ENE 22:56:23 10° N
SL-08 RB Rocket 3.8 22:49:11 19° S 22:52:28 78° WSW 22:57:02 10° NNW
Cosmos 1825 Rocket 3.6 22:49:41 14° S 22:53:34 89° WNW 22:58:02 10° N
Lacrosse 5 4.1 22:51:51 10° WNW 22:56:08 26° N 23:00:25 10° NE
Cosmos 1766 3.4 22:52:57 10° N 22:56:56 61° E 22:58:52 28° SSE
SAR-Lupe-2 3.6 22:56:28 29° SSE 22:58:08 70° ENE 23:01:43 10° N
Geosat 4.0 22:54:30 10° NE 22:59:31 63° ESE 23:04:14 11° SSW
SPOT 1/Viking Rocket 4.3 22:55:43 13° S 23:00:08 48° W 23:05:08 10° NNW
Terra 1.8 23:00:40 25° SSE 23:03:26 71° ENE 23:08:11 10° N
Cosmos 1634 Rocket 4.2 22:57:46 10° NNW 23:03:54 67° W 23:08:56 16° S
Cosmos 1190 Rocket 4.0 23:00:19 13° SSW 23:05:07 74° ESE 23:10:27 10° NNE
DMSP B5D2-2 4.3 23:04:26 10° NNE 23:09:38 54° E 23:12:33 25° SSE
SeaSat 1 4.5 23:08:01 10° SSW 23:11:31 19° WSW 23:15:03 10° WNW
Cosmos 2369 Rocket 2.5 23:07:28 10° NNW 23:13:02 58° WSW 23:16:29 23° S
Atlas Centaur 2 4.0 23:07:32 10° SW 23:13:46 25° S 23:15:36 23° SSE
ARGOS 3.9 23:10:34 15° SSW 23:14:47 46° W 23:20:01 10° NNW
CZ-4C R/B 4.1 23:12:55 21° SSW 23:15:30 48° W 23:19:29 10° NNW
Cosmos 676 Rocket 4.1 23:18:19 24° S 23:21:31 62° ESE 23:26:47 10° NNE
Cosmos 489 Rocket 4.5 23:20:18 13° SSW 23:26:00 85° ESE 23:32:25 10° NNE
Cosmos 1470 4.3 23:22:52 10° NNE 23:26:03 23° ENE 23:27:03 21° E
Cosmos 1900 4.4 23:23:06 22° SSW 23:26:22 60° ESE 23:31:27 10° NE
Cosmos 2279 Rocket 4.1 23:22:16 10° NNW 23:28:32 74° W 23:32:31 24° S
COSMOS 2455 3.5 23:24:17 10° SW 23:30:11 55° NW 23:36:07 10° NNE
Cosmos 1140 Rocket 4.1 23:29:18 31° SE 23:30:53 38° ESE 23:35:43 10° NE
Cosmos 1805 3.4 23:27:40 10° N 23:31:36 63° ENE 23:32:42 42° SE
Cosmos 1953 2.2 23:29:05 10° N 23:33:06 81° E 23:34:19 43° SSE
Lacrosse 5 rocket 4.0 23:34:16 10° WNW 23:37:30 22° N 23:40:52 10° NE
ATLAS 3B R/B 2.9 23:32:53 10° SW 23:40:36 87° SE 23:48:07 10° NE
COSMOS 2406 3.7 23:39:06 32° SSE 23:40:56 41° ESE 23:46:16 10° NE
IGS 5A 4.2 23:43:55 30° SSW 23:45:33 46° W 23:49:35 10° NNW
Cosmos 2084 3.3 23:43:44 10° NW 23:47:52 83° NE 23:49:09 44° SE
Cosmos 1340 3.9 23:50:01 27° E 23:50:01 27° E 23:53:16 10° NNE
H-2A R/B 4.0 23:50:23 10° NE 23:53:02 19° E 23:53:02 19° E
Cosmos 2221 3.8 23:49:49 10° N 23:53:37 29° ENE 23:54:45 25° E
Cosmos 407 Rocket 4.1 23:49:25 13° SW 23:54:07 56° WNW 23:59:16 10° NNE
SL-27 R/B 2.1 23:55:23 77° SE 23:55:30 80° ESE 23:58:53 10° NNE
